2023/03/12 23:33:46+0000,-35.64,-39.11,-33.69,-47.44,-46.86,-51.41
2023/03/12 23:34:38+0000,-36.59,-39.42,-34.18,-45.50,-46.59,-46.68
2023/03/12 23:35:30+0000,-37.12,-38.80,-34.55,-48.84,-46.15,-50.25
2023/03/12 23:36:22+0000,-36.57,-39.22,-34.20,-49.92,-47.54,-50.86
2023/03/12 23:37:15+0000,-36.24,-39.77,-34.50,-46.79,-47.21,-48.89
2023/03/12 23:38:07+0000,-37.53,-39.39,-34.22,-46.53,-47.32,-47.97
2023/03/12 23:38:59+0000,-36.07,-39.69,-34.04,-49.60,-47.22,-50.04
2023/03/12 23:39:51+0000,-35.81,-38.14,-34.59,-49.67,-46.88,-49.76
2023/03/12 23:40:43+0000,-35.92,-38.00,-34.41,-48.32,-47.35,-48.69
2023/03/12 23:41:41+0000,-38.34,-39.09,-34.47,-46.48,-48.28,-50.09
2023/03/12 23:42:33+0000,-36.21,-38.56,-34.02,-44.19,-46.86,-51.30
2023/03/12 23:43:25+0000,-36.62,-38.58,-34.02,-45.24,-47.12,-50.13
2023/03/12 23:44:17+0000,-36.05,-38.69,-33.84,-48.18,-47.17,-51.27
2023/03/12 23:45:09+0000,-37.43,-37.72,-34.07,-47.74,-47.38,-48.37
2023/03/12 23:46:01+0000,-36.12,-38.49,-33.76,-47.89,-46.95,-49.06
2023/03/12 23:46:53+0000,-36.27,-39.00,-33.77,-48.39,-47.58,-50.04
2023/03/12 23:47:45+0000,-36.37,-39.01,-33.88,-49.23,-47.68,-48.35
2023/03/12 23:48:37+0000,-37.57,-38.67,-33.70,-48.10,-46.09,-47.47
2023/03/12 23:49:29+0000,-36.46,-38.40,-34.45,-49.27,-46.70,-50.99
2023/03/12 23:50:22+0000,-37.43,-38.97,-33.56,-48.38,-47.67,-51.72
2023/03/12 23:51:20+0000,-36.48,-39.37,-33.26,-50.43,-46.77,-51.38
2023/03/12 23:52:12+0000,-36.11,-39.21,-34.69,-48.10,-48.09,-47.46
2023/03/12 23:53:04+0000,-36.79,-39.11,-34.03,-49.90,-46.85,-49.16
2023/03/12 23:53:56+0000,-37.64,-37.91,-33.77,-45.61,-48.24,-51.50
2023/03/12 23:54:48+0000,-35.74,-38.06,-33.58,-48.20,-48.06,-50.92
2023/03/12 23:55:40+0000,-37.05,-37.99,-33.98,-47.49,-47.80,-48.78
2023/03/12 23:56:32+0000,-35.13,-37.84,-34.58,-46.67,-47.67,-50.39
2023/03/12 23:57:24+0000,-35.28,-38.43,-33.78,-47.08,-47.97,-50.26
2023/03/12 23:58:16+0000,-35.48,-38.95,-33.15,-47.78,-47.28,-47.37
2023/03/12 23:59:08+0000,-34.69,-38.40,-33.67,-48.37,-47.64,-46.97
2023/03/13 00:00:01+0000,-34.58,-37.51,-34.24,-47.54,-47.68,-46.96
2023/03/13 00:01:06+0000,-36.04,-38.37,-34.15,-48.31,-47.60,-46.04
2023/03/13 00:01:58+0000,-35.66,-38.75,-33.75,-47.36,-48.15,-50.83
2023/03/13 00:02:50+0000,-34.34,-38.47,-32.30,-47.91,-47.42,-50.47
2023/03/13 00:03:42+0000,-35.15,-37.65,-34.21,-48.31,-46.91,-49.52
2023/03/13 00:04:34+0000,-35.78,-38.03,-34.53,-49.41,-47.69,-49.45
2023/03/13 00:05:26+0000,-35.64,-37.18,-33.98,-48.10,-47.65,-49.44
2023/03/13 00:06:18+0000,-35.12,-37.95,-33.45,-49.26,-47.32,-50.61
2023/03/13 00:07:10+0000,-35.07,-37.41,-34.06,-48.53,-48.55,-50.25
2023/03/13 00:08:03+0000,-36.75,-38.13,-32.98,-48.48,-48.04,-49.38
2023/03/13 00:08:55+0000,-35.75,-38.11,-33.35,-47.90,-47.93,-51.68
2023/03/13 00:09:47+0000,-36.18,-37.32,-32.52,-46.86,-47.34,-52.15
2023/03/13 00:10:39+0000,-35.75,-38.94,-33.73,-46.01,-48.30,-51.37
2023/03/13 00:11:37+0000,-36.68,-38.53,-33.24,-47.12,-47.78,-52.18
2023/03/13 00:12:29+0000,-36.43,-37.58,-34.66,-47.93,-48.21,-50.08
2023/03/13 00:13:21+0000,-35.05,-37.39,-34.16,-46.17,-46.81,-51.94
2023/03/13 00:14:13+0000,-36.75,-37.59,-34.28,-45.64,-47.26,-52.26
2023/03/13 00:15:05+0000,-36.67,-37.91,-33.06,-49.35,-47.14,-52.46
2023/03/13 00:15:57+0000,-36.44,-38.20,-34.37,-46.48,-47.59,-50.49
2023/03/13 00:16:49+0000,-35.92,-38.16,-34.16,-49.53,-48.01,-50.74
2023/03/13 00:17:41+0000,-35.59,-38.34,-34.50,-44.93,-48.96,-51.85
2023/03/13 00:18:33+0000,-35.19,-38.59,-34.06,-48.24,-48.12,-52.96
2023/03/13 00:19:25+0000,-36.35,-38.45,-33.53,-48.21,-47.81,-50.33
2023/03/13 00:20:18+0000,-36.74,-36.03,-34.28,-49.49,-47.17,-53.37
2023/03/13 00:21:17+0000,-35.18,-38.30,-33.94,-46.23,-47.58,-53.19
2023/03/13 00:22:09+0000,-36.02,-38.97,-33.19,-46.74,-47.23,-52.33
2023/03/13 00:23:01+0000,-36.67,-38.17,-33.88,-46.47,-47.93,-53.27
2023/03/13 00:23:53+0000,-36.04,-39.27,-33.32,-47.83,-47.54,-51.35
2023/03/13 00:24:45+0000,-36.60,-39.02,-33.49,-47.52,-46.93,-52.67
2023/03/13 00:25:37+0000,-37.40,-39.15,-33.82,-46.82,-47.30,-50.23
2023/03/13 00:26:29+0000,-36.71,-38.50,-33.91,-47.03,-47.52,-50.14
2023/03/13 00:27:21+0000,-36.30,-39.06,-33.12,-47.35,-47.45,-49.42
2023/03/13 00:28:13+0000,-36.74,-39.40,-33.96,-49.12,-47.49,-50.46
2023/03/13 00:29:05+0000,-37.13,-39.11,-33.99,-49.88,-48.31,-52.88
2023/03/13 00:29:58+0000,-37.29,-39.59,-34.47,-46.28,-48.56,-49.73
2023/03/13 00:30:50+0000,-36.72,-38.56,-33.53,-50.13,-47.03,-50.33
2023/03/13 00:31:48+0000,-36.16,-38.41,-33.88,-50.22,-47.85,-50.34
2023/03/13 00:32:40+0000,-37.24,-39.69,-33.25,-48.88,-49.39,-51.05
2023/03/13 00:33:32+0000,-36.67,-38.88,-33.33,-47.66,-48.42,-53.10
2023/03/13 00:34:24+0000,-37.02,-38.06,-33.68,-47.22,-47.29,-49.87
2023/03/13 00:35:16+0000,-37.01,-38.36,-33.94,-48.61,-47.65,-52.80
2023/03/13 00:36:08+0000,-37.29,-39.12,-33.75,-49.18,-47.40,-52.20
2023/03/13 00:37:00+0000,-36.94,-40.25,-33.74,-48.33,-47.97,-51.11
2023/03/13 00:37:52+0000,-36.58,-39.80,-34.06,-48.59,-47.02,-51.44
2023/03/13 00:38:45+0000,-36.87,-39.53,-34.20,-48.91,-47.37,-51.14
2023/03/13 00:39:37+0000,-37.35,-42.26,-33.72,-48.28,-47.84,-51.43
2023/03/13 00:40:29+0000,-37.06,-39.70,-34.14,-47.80,-47.40,-49.20
2023/03/13 00:41:27+0000,-36.49,-39.85,-34.06,-46.96,-48.55,-47.92
2023/03/13 00:42:19+0000,-36.83,-40.31,-34.04,-50.86,-47.25,-49.13
2023/03/13 00:43:11+0000,-36.36,-41.11,-34.24,-49.15,-47.88,-52.25
2023/03/13 00:44:03+0000,-35.87,-40.20,-33.74,-47.96,-47.45,-52.40
2023/03/13 00:44:55+0000,-36.37,-40.09,-34.65,-47.83,-48.12,-50.69
2023/03/13 00:45:47+0000,-36.99,-40.70,-34.32,-47.95,-46.39,-53.25
2023/03/13 00:46:39+0000,-35.88,-41.29,-32.88,-48.23,-48.25,-51.16
2023/03/13 00:47:31+0000,-36.55,-42.14,-34.18,-48.10,-48.10,-52.95
2023/03/13 00:48:23+0000,-37.57,-40.71,-33.22,-47.85,-46.58,-49.44
2023/03/13 00:49:15+0000,-36.07,-40.18,-33.69,-47.03,-46.88,-51.41
2023/03/13 00:50:08+0000,-36.72,-39.97,-34.50,-47.70,-47.08,-50.14
2023/03/13 00:51:07+0000,-36.88,-40.58,-33.95,-47.60,-46.93,-49.31
2023/03/13 00:51:59+0000,-37.27,-38.96,-34.46,-49.25,-48.51,-49.72
2023/03/13 00:52:51+0000,-36.42,-39.75,-33.33,-48.24,-46.99,-50.53
2023/03/13 00:53:43+0000,-36.31,-39.40,-34.95,-49.59,-47.01,-50.19
2023/03/13 00:54:36+0000,-36.52,-39.61,-34.36,-50.22,-46.57,-49.88
2023/03/13 00:55:28+0000,-36.29,-39.50,-34.11,-47.99,-48.06,-51.54
2023/03/13 00:56:20+0000,-36.28,-39.76,-32.64,-49.81,-47.45,-51.65
2023/03/13 00:57:12+0000,-35.84,-38.20,-34.01,-48.66,-48.21,-50.49
2023/03/13 00:58:04+0000,-36.40,-38.07,-34.63,-48.85,-46.63,-53.06
2023/03/13 00:58:56+0000,-36.98,-37.92,-33.22,-47.64,-48.25,-51.47
2023/03/13 00:59:48+0000,-37.11,-38.15,-32.87,-47.50,-46.85,-53.11
2023/03/13 01:00:40+0000,-37.05,-40.36,-34.23,-48.75,-48.93,-50.99
2023/03/13 01:01:40+0000,-36.54,-39.15,-33.47,-49.14,-47.83,-50.06
2023/03/13 01:02:32+0000,-35.71,-39.02,-33.80,-43.12,-45.92,-52.88
2023/03/13 01:03:24+0000,-36.40,-39.42,-33.28,-44.33,-48.02,-50.46
2023/03/13 01:04:16+0000,-37.00,-39.20,-33.16,-50.16,-47.70,-53.21
2023/03/13 01:05:08+0000,-35.47,-39.56,-33.92,-47.41,-46.60,-47.84
2023/03/13 01:06:00+0000,-36.39,-39.92,-33.75,-43.00,-47.00,-50.92
2023/03/13 01:06:52+0000,-36.06,-39.42,-33.40,-39.12,-47.08,-49.83
2023/03/13 01:07:44+0000,-36.70,-40.23,-33.82,-47.84,-47.11,-47.15
2023/03/13 01:08:36+0000,-36.52,-40.29,-33.65,-48.74,-47.54,-49.53
2023/03/13 01:09:28+0000,-37.05,-39.86,-34.18,-41.09,-46.45,-49.75
2023/03/13 01:10:20+0000,-35.67,-41.73,-33.89,-39.36,-46.63,-49.67
2023/03/13 01:11:19+0000,-36.72,-39.87,-33.95,-47.58,-46.67,-48.76
2023/03/13 01:12:11+0000,-35.90,-41.03,-34.32,-49.70,-47.97,-47.99
2023/03/13 01:13:03+0000,-36.58,-39.56,-34.01,-51.27,-46.71,-50.00
2023/03/13 01:13:55+0000,-36.81,-38.71,-33.87,-41.21,-47.98,-49.12
2023/03/13 01:14:47+0000,-36.11,-38.97,-33.48,-50.23,-46.89,-52.22
2023/03/13 01:15:40+0000,-35.61,-40.90,-34.82,-47.50,-48.02,-48.93
2023/03/13 01:16:32+0000,-35.79,-40.48,-33.28,-43.68,-47.45,-51.21
2023/03/13 01:17:24+0000,-36.46,-39.86,-33.77,-46.68,-46.82,-48.60
2023/03/13 01:18:16+0000,-36.44,-40.46,-33.50,-48.90,-46.94,-51.52
2023/03/13 01:19:08+0000,-36.84,-39.69,-32.64,-47.76,-46.99,-48.02
2023/03/13 01:20:00+0000,-36.89,-41.12,-33.73,-42.44,-46.62,-49.66
2023/03/13 01:21:04+0000,-35.50,-42.59,-33.14,-50.73,-46.64,-50.72
2023/03/13 01:21:56+0000,-37.12,-39.59,-33.93,-43.33,-47.70,-48.61
2023/03/13 01:22:48+0000,-36.66,-40.99,-34.14,-49.51,-47.46,-48.21
2023/03/13 01:23:40+0000,-35.45,-40.47,-33.30,-49.59,-47.74,-49.34
2023/03/13 01:24:32+0000,-36.40,-40.25,-32.76,-43.45,-47.16,-51.38
2023/03/13 01:25:24+0000,-35.61,-40.63,-32.72,-45.94,-48.13,-49.58
2023/03/13 01:26:16+0000,-35.96,-40.38,-33.57,-47.35,-46.88,-52.40
2023/03/13 01:27:08+0000,-36.24,-40.07,-33.01,-48.13,-46.62,-50.31
2023/03/13 01:28:00+0000,-36.72,-38.88,-33.32,-42.92,-47.15,-50.12
2023/03/13 01:28:52+0000,-35.10,-39.49,-34.19,-43.44,-48.24,-47.43
2023/03/13 01:29:45+0000,-36.36,-39.82,-34.37,-49.03,-46.72,-50.96
2023/03/13 01:30:37+0000,-36.80,-39.43,-33.59,-50.01,-46.54,-45.46
2023/03/13 01:31:41+0000,-35.32,-39.22,-33.74,-50.09,-47.83,-49.87
2023/03/13 01:32:33+0000,-36.44,-37.78,-33.37,-44.76,-47.25,-48.26
2023/03/13 01:33:25+0000,-37.05,-38.61,-32.89,-39.78,-47.89,-50.68
2023/03/13 01:34:17+0000,-36.16,-38.71,-33.48,-47.39,-45.86,-52.71
2023/03/13 01:35:09+0000,-36.78,-38.49,-33.47,-48.76,-47.62,-49.77
2023/03/13 01:36:01+0000,-34.47,-38.12,-33.70,-39.60,-47.49,-52.38
2023/03/13 01:36:53+0000,-33.42,-39.90,-33.26,-37.37,-45.90,-50.19
2023/03/13 01:37:45+0000,-33.77,-38.06,-33.81,-46.44,-46.05,-49.25
2023/03/13 01:38:37+0000,-36.33,-39.88,-33.34,-47.27,-45.98,-48.97
2023/03/13 01:39:29+0000,-34.84,-39.17,-33.45,-41.84,-46.42,-50.93
2023/03/13 01:40:22+0000,-33.83,-39.10,-32.18,-44.23,-47.14,-50.91
2023/03/13 01:41:26+0000,-34.07,-38.90,-33.61,-42.83,-48.05,-50.19
2023/03/13 01:42:18+0000,-34.73,-39.23,-33.37,-47.10,-46.85,-51.77
2023/03/13 01:43:10+0000,-36.10,-39.41,-33.60,-47.16,-48.34,-48.55
2023/03/13 01:44:02+0000,-36.85,-37.36,-32.86,-44.55,-47.58,-52.93
2023/03/13 01:44:54+0000,-35.54,-39.05,-33.95,-41.27,-46.60,-50.03
2023/03/13 01:45:46+0000,-35.60,-38.95,-33.95,-47.03,-45.91,-50.70
2023/03/13 01:46:38+0000,-36.95,-41.52,-32.22,-47.98,-47.62,-51.12
2023/03/13 01:47:30+0000,-35.14,-38.83,-34.12,-36.08,-47.54,-50.28
2023/03/13 01:48:22+0000,-36.60,-38.97,-32.69,-38.39,-47.39,-50.44
2023/03/13 01:49:14+0000,-36.29,-38.63,-33.81,-47.35,-47.69,-51.56
2023/03/13 01:50:07+0000,-34.95,-38.53,-33.00,-49.60,-47.86,-52.06
2023/03/13 01:51:05+0000,-36.33,-38.23,-34.05,-50.65,-47.76,-51.26
2023/03/13 01:51:57+0000,-36.05,-38.38,-32.91,-39.66,-48.26,-51.53
2023/03/13 01:52:49+0000,-36.06,-39.23,-33.84,-46.84,-46.76,-50.04
2023/03/13 01:53:41+0000,-35.62,-39.04,-33.77,-45.81,-49.25,-51.56
2023/03/13 01:54:33+0000,-35.88,-38.67,-33.89,-39.23,-47.69,-52.72
2023/03/13 01:55:25+0000,-35.49,-38.51,-34.33,-42.02,-48.17,-50.57
2023/03/13 01:56:17+0000,-35.76,-39.52,-33.01,-47.13,-47.86,-52.18
2023/03/13 01:57:09+0000,-35.93,-39.24,-33.62,-47.19,-47.57,-52.28
2023/03/13 01:58:01+0000,-35.59,-38.47,-33.90,-45.58,-48.11,-52.19
2023/03/13 01:58:53+0000,-34.75,-39.95,-34.11,-45.70,-47.98,-50.25
2023/03/13 01:59:46+0000,-35.78,-39.11,-34.67,-48.36,-48.64,-51.58
2023/03/13 02:00:38+0000,-36.74,-39.09,-33.73,-46.84,-47.97,-51.80
2023/03/13 02:01:37+0000,-36.19,-39.56,-33.11,-48.82,-48.37,-52.04
2023/03/13 02:02:29+0000,-36.17,-39.12,-34.29,-45.90,-48.36,-51.77
2023/03/13 02:03:21+0000,-36.00,-39.47,-34.33,-42.54,-47.98,-51.71
2023/03/13 02:04:13+0000,-35.27,-37.92,-34.44,-48.16,-48.18,-52.48
2023/03/13 02:05:05+0000,-34.92,-39.79,-34.14,-49.51,-48.02,-52.35
2023/03/13 02:05:57+0000,-36.02,-38.67,-34.55,-44.19,-47.69,-52.42
2023/03/13 02:06:49+0000,-36.16,-38.42,-33.55,-51.23,-48.01,-52.98
2023/03/13 02:07:41+0000,-36.28,-38.74,-32.97,-47.18,-48.08,-52.52
2023/03/13 02:08:33+0000,-35.73,-38.10,-33.73,-50.53,-48.33,-52.95
2023/03/13 02:09:25+0000,-36.37,-38.05,-34.21,-47.03,-48.34,-52.51
2023/03/13 02:10:17+0000,-36.16,-39.50,-33.75,-47.55,-48.27,-52.54
2023/03/13 02:11:16+0000,-36.21,-39.88,-34.19,-48.08,-48.23,-52.72
2023/03/13 02:12:08+0000,-36.05,-38.65,-33.24,-47.06,-47.70,-52.35
2023/03/13 02:13:00+0000,-36.50,-38.67,-34.22,-45.40,-48.53,-52.52
2023/03/13 02:13:52+0000,-36.37,-39.69,-34.22,-44.48,-49.18,-52.92
2023/03/13 02:14:44+0000,-34.86,-38.98,-33.89,-44.81,-48.98,-52.61
2023/03/13 02:15:36+0000,-35.36,-39.06,-32.83,-46.49,-48.42,-53.67
2023/03/13 02:16:28+0000,-36.36,-37.97,-34.33,-44.16,-47.39,-52.72
2023/03/13 02:17:20+0000,-35.68,-40.33,-33.38,-48.26,-47.56,-53.25
2023/03/13 02:18:12+0000,-33.30,-40.47,-34.18,-47.26,-48.66,-53.57
2023/03/13 02:19:04+0000,-33.91,-39.09,-33.96,-50.73,-48.06,-53.19
2023/03/13 02:19:57+0000,-35.03,-38.42,-34.37,-45.29,-47.44,-52.78
2023/03/13 02:20:49+0000,-35.06,-39.26,-33.66,-50.39,-48.01,-53.63
2023/03/13 02:21:47+0000,-36.25,-38.85,-33.73,-47.02,-48.37,-53.85
2023/03/13 02:22:39+0000,-33.25,-39.31,-33.55,-46.48,-47.90,-53.26
2023/03/13 02:23:31+0000,-36.87,-37.77,-33.52,-47.61,-47.40,-54.10
2023/03/13 02:24:23+0000,-36.23,-38.18,-33.69,-47.23,-47.48,-53.54
2023/03/13 02:25:15+0000,-36.26,-38.82,-33.90,-47.24,-48.24,-53.07
2023/03/13 02:26:07+0000,-34.19,-39.38,-33.91,-49.06,-48.14,-53.48
2023/03/13 02:26:59+0000,-37.30,-38.42,-34.46,-46.83,-48.58,-52.93
2023/03/13 02:27:51+0000,-36.37,-39.53,-34.13,-45.63,-48.36,-53.13
2023/03/13 02:28:43+0000,-31.47,-39.18,-34.31,-44.69,-48.29,-53.21
2023/03/13 02:29:35+0000,-33.13,-40.16,-34.07,-50.17,-48.65,-53.20
2023/03/13 02:30:27+0000,-33.90,-38.10,-34.96,-47.62,-47.92,-53.31
2023/03/13 02:31:26+0000,-35.57,-39.24,-31.87,-47.12,-48.85,-52.81
2023/03/13 02:32:18+0000,-36.53,-35.98,-33.82,-47.92,-48.24,-53.28
2023/03/13 02:33:10+0000,-36.04,-37.15,-34.90,-45.00,-49.38,-53.76
2023/03/13 02:34:02+0000,-36.73,-39.26,-34.40,-46.78,-48.91,-53.38
2023/03/13 02:34:54+0000,-34.32,-39.17,-33.60,-47.38,-48.74,-53.03
2023/03/13 02:35:46+0000,-35.17,-38.21,-34.09,-46.23,-48.67,-53.10
2023/03/13 02:36:38+0000,-35.83,-36.80,-34.57,-47.60,-48.66,-53.48
2023/03/13 02:37:30+0000,-36.14,-39.46,-34.87,-47.26,-48.45,-52.83
2023/03/13 02:38:22+0000,-35.62,-39.45,-33.73,-48.00,-48.18,-53.06
2023/03/13 02:39:14+0000,-35.14,-36.92,-34.51,-45.70,-47.94,-52.86
2023/03/13 02:40:07+0000,-36.75,-39.24,-34.46,-46.88,-48.72,-53.10
2023/03/13 02:41:06+0000,-35.69,-39.29,-34.88,-48.61,-48.40,-53.33
2023/03/13 02:41:58+0000,-36.55,-40.73,-34.55,-47.76,-48.59,-53.14
2023/03/13 02:42:50+0000,-35.21,-38.21,-34.46,-50.15,-47.93,-53.05
2023/03/13 02:43:42+0000,-31.34,-39.33,-34.71,-45.36,-47.36,-52.63
2023/03/13 02:44:34+0000,-33.89,-38.39,-34.07,-50.53,-48.78,-53.43
2023/03/13 02:45:26+0000,-36.35,-38.26,-34.17,-46.97,-48.62,-53.44
2023/03/13 02:46:19+0000,-35.58,-38.62,-34.48,-44.14,-47.85,-53.23
2023/03/13 02:47:11+0000,-35.69,-38.85,-34.31,-45.63,-49.19,-52.71
2023/03/13 02:48:03+0000,-36.74,-38.99,-34.51,-44.94,-48.95,-52.64
2023/03/13 02:48:55+0000,-35.61,-40.12,-34.13,-44.43,-47.31,-52.59
2023/03/13 02:49:47+0000,-36.35,-38.09,-34.18,-46.26,-48.25,-52.55
2023/03/13 02:50:39+0000,-36.42,-38.38,-34.70,-49.28,-48.93,-52.60
2023/03/13 02:51:37+0000,-35.46,-38.45,-34.39,-48.68,-49.11,-52.14
2023/03/13 02:52:29+0000,-36.49,-38.16,-34.89,-44.82,-48.48,-52.45
2023/03/13 02:53:21+0000,-35.52,-39.89,-33.27,-46.66,-48.33,-52.22
2023/03/13 02:54:13+0000,-34.80,-38.79,-35.08,-45.91,-47.34,-52.44
2023/03/13 02:55:05+0000,-34.91,-39.29,-33.77,-50.71,-48.57,-52.57
2023/03/13 02:55:57+0000,-36.06,-38.56,-33.49,-45.22,-48.63,-52.69
2023/03/13 02:56:49+0000,-36.55,-38.49,-34.69,-45.78,-48.25,-52.76
2023/03/13 02:57:41+0000,-36.96,-36.00,-34.82,-46.03,-48.67,-53.10
2023/03/13 02:58:33+0000,-34.05,-39.21,-34.74,-43.62,-48.83,-53.04
2023/03/13 02:59:26+0000,-36.53,-38.84,-33.48,-46.72,-49.11,-53.23
2023/03/13 03:00:18+0000,-36.64,-35.64,-34.30,-46.23,-47.16,-53.25
2023/03/13 03:01:18+0000,-35.07,-35.84,-34.09,-51.14,-47.70,-52.84
2023/03/13 03:02:10+0000,-36.37,-38.52,-34.38,-46.71,-49.37,-52.78
2023/03/13 03:03:02+0000,-36.10,-38.30,-35.17,-46.69,-48.17,-53.39
2023/03/13 03:03:54+0000,-36.25,-38.72,-33.67,-46.68,-48.60,-52.76
2023/03/13 03:04:46+0000,-36.04,-37.23,-32.81,-45.27,-47.59,-52.63
2023/03/13 03:05:38+0000,-35.89,-38.13,-34.90,-45.33,-48.33,-51.90
2023/03/13 03:06:30+0000,-35.99,-38.06,-34.90,-47.71,-48.34,-52.03
2023/03/13 03:07:22+0000,-36.51,-38.45,-34.48,-47.65,-48.28,-52.17
2023/03/13 03:08:14+0000,-36.65,-36.21,-33.93,-45.45,-49.02,-52.12
2023/03/13 03:09:06+0000,-34.88,-38.94,-34.37,-46.80,-48.89,-52.62
2023/03/13 03:09:58+0000,-36.57,-38.66,-34.81,-49.10,-48.43,-52.70
2023/03/13 03:10:50+0000,-36.05,-39.55,-34.00,-46.62,-48.36,-51.99
2023/03/13 03:11:48+0000,-33.98,-38.09,-34.18,-50.50,-49.14,-51.55
2023/03/13 03:12:40+0000,-36.49,-35.20,-34.68,-48.14,-48.58,-52.00
2023/03/13 03:13:32+0000,-34.99,-37.34,-34.47,-51.18,-47.86,-52.16
2023/03/13 03:14:25+0000,-36.29,-38.15,-33.52,-41.93,-48.71,-51.38
2023/03/13 03:15:17+0000,-34.54,-36.88,-34.11,-47.80,-48.94,-51.94
2023/03/13 03:16:09+0000,-36.61,-37.51,-34.55,-48.03,-47.68,-51.75
2023/03/13 03:17:01+0000,-37.11,-38.03,-34.32,-44.06,-47.36,-52.81
2023/03/13 03:17:53+0000,-31.02,-39.76,-33.91,-44.90,-49.19,-51.84
2023/03/13 03:18:45+0000,-36.04,-35.29,-34.25,-48.97,-48.79,-52.41
2023/03/13 03:19:37+0000,-35.51,-37.46,-35.23,-48.72,-46.70,-52.37
2023/03/13 03:20:29+0000,-36.20,-37.19,-34.47,-42.97,-47.69,-52.61
2023/03/13 03:21:28+0000,-36.16,-37.63,-35.12,-43.92,-48.01,-52.11
2023/03/13 03:22:20+0000,-36.25,-35.74,-34.17,-50.55,-48.30,-52.28
2023/03/13 03:23:12+0000,-35.57,-37.08,-34.53,-48.18,-48.43,-52.30
2023/03/13 03:24:04+0000,-35.64,-38.03,-34.67,-50.64,-46.49,-52.82
2023/03/13 03:24:56+0000,-36.41,-38.73,-34.21,-45.93,-49.16,-52.31
2023/03/13 03:25:48+0000,-36.55,-37.72,-34.96,-50.73,-48.56,-52.83
2023/03/13 03:26:40+0000,-35.81,-36.69,-35.10,-44.77,-49.25,-52.81
2023/03/13 03:27:32+0000,-36.09,-37.51,-34.78,-44.46,-47.10,-52.61
2023/03/13 03:28:24+0000,-35.61,-39.19,-34.28,-44.26,-48.72,-53.09
2023/03/13 03:29:16+0000,-35.94,-36.18,-33.87,-44.24,-48.61,-52.50
2023/03/13 03:30:08+0000,-35.75,-38.94,-33.54,-44.61,-47.67,-53.06
2023/03/13 03:31:08+0000,-36.69,-37.80,-34.50,-46.71,-47.55,-53.47
2023/03/13 03:32:00+0000,-37.01,-38.52,-34.66,-44.11,-48.55,-53.16
2023/03/13 03:32:52+0000,-37.29,-38.80,-34.51,-43.19,-48.89,-52.98
2023/03/13 03:33:44+0000,-37.15,-38.22,-34.95,-44.47,-48.33,-52.52
2023/03/13 03:34:36+0000,-34.29,-39.14,-34.64,-45.00,-47.62,-53.36
2023/03/13 03:35:28+0000,-36.44,-38.41,-35.02,-43.34,-48.52,-52.86
2023/03/13 03:36:20+0000,-37.07,-37.66,-34.62,-50.52,-48.12,-53.25
2023/03/13 03:37:12+0000,-34.66,-37.75,-34.77,-44.46,-48.32,-53.16
2023/03/13 03:38:04+0000,-35.65,-37.85,-35.18,-50.77,-48.36,-52.77
2023/03/13 03:38:56+0000,-36.45,-39.05,-35.21,-47.74,-48.42,-52.84
2023/03/13 03:39:48+0000,-35.99,-38.23,-34.51,-48.93,-45.95,-52.27
2023/03/13 03:40:40+0000,-35.97,-37.52,-34.40,-46.73,-49.25,-53.30
2023/03/13 03:41:39+0000,-36.76,-37.38,-34.39,-46.33,-48.62,-53.32
2023/03/13 03:42:31+0000,-36.64,-39.58,-34.45,-45.17,-48.97,-53.16
2023/03/13 03:43:23+0000,-34.99,-38.55,-34.11,-46.40,-48.12,-53.37
2023/03/13 03:44:15+0000,-36.15,-36.66,-34.72,-48.75,-48.28,-52.62
2023/03/13 03:45:07+0000,-35.49,-38.30,-34.87,-47.52,-48.98,-52.86
2023/03/13 03:45:59+0000,-35.47,-38.05,-34.36,-47.26,-48.33,-52.93
2023/03/13 03:46:51+0000,-36.18,-18.75,-33.74,-49.87,-48.08,-53.43
2023/03/13 03:47:43+0000,-36.74,-26.51,-35.05,-48.55,-48.40,-52.48
2023/03/13 03:48:35+0000,-34.26,-37.40,-34.32,-50.84,-49.14,-52.14
2023/03/13 03:49:27+0000,-35.45,-38.15,-34.71,-45.65,-49.08,-51.54
2023/03/13 03:50:20+0000,-36.02,-22.71,-34.10,-50.24,-48.26,-51.87
2023/03/13 03:51:19+0000,-36.18,-14.02,-34.54,-48.42,-48.41,-52.22
2023/03/13 03:52:11+0000,-35.37,-13.58,-33.98,-46.99,-48.60,-51.33
2023/03/13 03:53:03+0000,-36.24,-37.89,-34.75,-48.35,-49.16,-51.84
2023/03/13 03:53:55+0000,-35.28,-37.70,-33.67,-47.39,-47.89,-51.23
2023/03/13 03:54:47+0000,-36.04,-26.44,-33.28,-46.72,-48.04,-51.47
2023/03/13 03:55:39+0000,-36.41,-28.35,-34.21,-48.65,-52.86,-51.15
2023/03/13 03:56:31+0000,-36.93,-37.48,-34.23,-46.50,-49.61,-51.29
2023/03/13 03:57:23+0000,-35.23,-38.25,-33.74,-46.62,-48.41,-50.94
2023/03/13 03:58:15+0000,-35.52,-26.87,-33.78,-47.93,-48.77,-51.05
2023/03/13 03:59:07+0000,-35.90,-39.70,-34.54,-48.85,-48.82,-51.40
2023/03/13 04:00:00+0000,-36.47,-38.95,-35.24,-47.81,-48.94,-51.55
2023/03/13 04:01:00+0000,-35.76,-38.71,-34.49,-47.69,-49.02,-51.37
2023/03/13 04:01:52+0000,-36.13,-38.77,-33.52,-46.47,-49.18,-51.32
2023/03/13 04:02:44+0000,-37.16,-27.70,-34.54,-48.16,-48.98,-50.77
2023/03/13 04:03:36+0000,-35.03,-39.47,-34.45,-47.93,-47.92,-50.59
2023/03/13 04:04:28+0000,-35.38,-38.20,-34.74,-48.27,-48.55,-51.37
2023/03/13 04:05:20+0000,-35.86,-26.34,-33.24,-49.00,-49.26,-51.26
2023/03/13 04:06:12+0000,-36.44,-26.33,-34.98,-47.92,-48.67,-51.09
2023/03/13 04:07:04+0000,-35.92,-38.40,-34.68,-50.65,-48.83,-52.06
2023/03/13 04:07:56+0000,-36.45,-38.17,-34.02,-49.54,-49.07,-52.32
2023/03/13 04:08:48+0000,-36.42,-26.03,-33.97,-50.36,-49.03,-52.32
2023/03/13 04:09:41+0000,-36.81,-26.13,-34.81,-48.68,-48.90,-53.00
2023/03/13 04:10:33+0000,-36.02,-39.26,-34.62,-50.24,-48.93,-52.66
2023/03/13 04:11:31+0000,-35.63,-38.49,-34.90,-47.73,-49.80,-52.57
2023/03/13 04:12:23+0000,-34.45,-37.26,-33.81,-49.32,-49.46,-51.93
2023/03/13 04:13:15+0000,-35.63,-26.44,-33.75,-48.24,-48.53,-51.96
2023/03/13 04:14:07+0000,-35.40,-37.87,-34.40,-48.33,-48.07,-51.64
2023/03/13 04:14:59+0000,-35.13,-38.62,-34.73,-48.31,-48.80,-51.97
2023/03/13 04:15:51+0000,-35.76,-39.30,-34.02,-48.21,-48.90,-52.75
2023/03/13 04:16:43+0000,-35.37,-26.29,-35.17,-47.00,-47.88,-51.97
2023/03/13 04:17:35+0000,-34.93,-39.30,-35.05,-47.95,-48.04,-52.18
2023/03/13 04:18:27+0000,-34.97,-36.97,-34.79,-48.40,-48.21,-52.36
2023/03/13 04:19:19+0000,-36.03,-25.92,-33.52,-47.96,-48.31,-52.07
2023/03/13 04:20:12+0000,-34.88,-20.24,-35.16,-45.17,-48.32,-52.20
2023/03/13 04:21:16+0000,-35.87,-21.49,-34.07,-45.11,-48.22,-52.72
2023/03/13 04:22:08+0000,-35.46,-21.37,-34.75,-48.83,-48.49,-52.31
2023/03/13 04:23:00+0000,-35.89,-37.95,-34.72,-47.46,-48.33,-49.76
2023/03/13 04:23:52+0000,-36.84,-38.28,-33.74,-44.64,-47.56,-53.39
2023/03/13 04:24:45+0000,-36.96,-23.56,-34.25,-47.76,-48.81,-52.59
2023/03/13 04:25:37+0000,-35.05,-38.21,-34.97,-48.84,-48.23,-52.94
2023/03/13 04:26:29+0000,-35.58,-38.92,-34.51,-47.50,-48.85,-53.50
2023/03/13 04:27:21+0000,-35.21,-38.79,-34.68,-48.41,-48.51,-53.05
2023/03/13 04:28:13+0000,-37.13,-38.46,-34.83,-47.02,-49.16,-52.80
2023/03/13 04:29:05+0000,-34.16,-38.16,-34.63,-50.28,-48.71,-52.66
2023/03/13 04:29:57+0000,-36.30,-38.59,-34.78,-47.34,-48.85,-53.80
2023/03/13 04:30:49+0000,-36.29,-38.54,-34.49,-50.42,-48.61,-53.11
2023/03/13 04:31:53+0000,-35.42,-39.12,-34.26,-47.72,-48.70,-52.94
2023/03/13 04:32:45+0000,-36.34,-38.31,-34.17,-47.07,-48.41,-53.09
2023/03/13 04:33:37+0000,-33.79,-38.72,-34.60,-47.51,-48.56,-53.18
2023/03/13 04:34:29+0000,-35.58,-37.87,-34.78,-47.96,-49.04,-52.84
2023/03/13 04:35:21+0000,-36.89,-37.33,-34.46,-47.66,-48.68,-52.93
2023/03/13 04:36:13+0000,-36.82,-38.76,-34.84,-46.92,-49.31,-53.20
2023/03/13 04:37:05+0000,-34.92,-37.20,-34.42,-50.03,-48.55,-54.03
2023/03/13 04:37:57+0000,-36.93,-38.09,-34.26,-47.16,-48.98,-53.54
2023/03/13 04:38:49+0000,-36.75,-36.58,-33.51,-50.50,-48.57,-53.57
2023/03/13 04:39:42+0000,-33.11,-37.36,-34.82,-48.81,-49.16,-53.06
2023/03/13 04:40:34+0000,-32.97,-38.37,-34.17,-50.17,-48.83,-53.34
2023/03/13 04:41:33+0000,-36.74,-37.57,-34.74,-48.89,-48.79,-52.92
2023/03/13 04:42:25+0000,-35.33,-37.34,-33.38,-45.69,-48.96,-53.73
2023/03/13 04:43:17+0000,-36.42,-37.65,-33.33,-48.87,-48.35,-53.93
2023/03/13 04:44:09+0000,-32.87,-38.81,-34.77,-49.15,-48.32,-53.60
2023/03/13 04:45:01+0000,-34.72,-37.31,-34.41,-48.48,-48.49,-53.65
2023/03/13 04:45:53+0000,-36.72,-38.36,-33.32,-47.73,-49.17,-53.60
2023/03/13 04:46:45+0000,-35.48,-39.37,-34.44,-48.24,-49.29,-53.36
2023/03/13 04:47:37+0000,-34.76,-39.67,-34.54,-48.96,-49.01,-53.29